#�ϑ�����,���ϕ���,���ϕ���,�ő啗��,�ő啗����������,�ő�u�ԕ���,�ő�u�ԕ�����������
#(�N����),(m/s)   ,(16����),(m/s)   ,(16����)        ,(m/s)       ,(16����)            
2015/1/17 0:01,0.5,9,0.5,9,0.6,9
2015/1/17 0:02,0.4,9,0.5,9,0.6,8
2015/1/17 0:03,0.4,9,0.4,9,1.1,11
2015/1/17 0:04,0.5,9,0.5,9,1.3,10
2015/1/17 0:05,0.5,9,0.5,9,0.9,10
2015/1/17 0:06,0.6,10,0.6,10,2,11
2015/1/17 0:07,0.7,10,0.7,10,1.9,11
2015/1/17 0:08,0.8,10,0.8,10,2.1,10
2015/1/17 0:09,0.9,10,0.9,10,1.6,11
2015/1/17 0:10,0.9,10,0.9,10,1,11
2015/1/17 0:11,0.9,10,0.9,10,1,10
2015/1/17 0:12,0.9,10,0.9,10,1.1,10
2015/1/17 0:13,1,11,1,10,1.4,11
2015/1/17 0:14,1,11,1,10,1.3,12
2015/1/17 0:15,1.1,11,1.1,11,1.4,12
2015/1/17 0:16,1.1,11,1.1,11,1.5,13
2015/1/17 0:17,1,12,1.1,11,1.3,12
2015/1/17 0:18,1,12,1,11,1.3,12
2015/1/17 0:19,0.9,12,1,11,1.3,12
2015/1/17 0:20,0.9,12,0.9,11,0.9,13
2015/1/17 0:21,0.9,12,0.9,11,1.3,12
2015/1/17 0:22,1,13,1,11,1.4,13
2015/1/17 0:23,0.9,13,1,11,1.3,12
2015/1/17 0:24,0.9,13,0.9,11,0.9,13
2015/1/17 0:25,0.8,13,0.9,11,0.9,13
2015/1/17 0:26,0.8,13,0.8,11,0.9,16
2015/1/17 0:27,0.7,13,0.7,12,1,15
2015/1/17 0:28,0.7,14,0.7,12,1.6,14
2015/1/17 0:29,0.7,14,0.7,13,1.6,16
2015/1/17 0:30,0.8,14,0.8,13,1.8,16
2015/1/17 0:31,0.8,14,0.8,13,1.4,16
2015/1/17 0:32,0.7,14,0.8,13,0.5,15
2015/1/17 0:33,0.6,14,0.7,13,1,12
2015/1/17 0:34,0.7,14,0.7,13,1,13
2015/1/17 0:35,0.7,15,0.7,13,1.5,15
2015/1/17 0:36,0.7,15,0.7,14,1.5,15
2015/1/17 0:37,0.7,15,0.7,14,0.9,15
2015/1/17 0:38,0.7,15,0.7,14,1.8,15
2015/1/17 0:39,0.7,15,0.7,14,1.9,16
2015/1/17 0:40,0.7,15,0.7,14,1.5,16
2015/1/17 0:41,0.8,15,0.8,14,1.9,15
2015/1/17 0:42,0.8,15,0.8,15,0.9,15
2015/1/17 0:43,0.9,15,0.9,15,1.3,16
2015/1/17 0:44,0.9,16,0.9,15,1.5,16
2015/1/17 0:45,0.9,16,0.9,15,1.5,16
2015/1/17 0:46,1,16,1,16,1.4,16
2015/1/17 0:47,1.1,16,1.1,16,1.8,14
2015/1/17 0:48,1.1,16,1.1,16,1.9,16
2015/1/17 0:49,1,16,1,16,1.3,15
2015/1/17 0:50,0.9,16,1,16,1.3,15
2015/1/17 0:51,0.8,15,0.9,16,0.1,14
2015/1/17 0:52,0.8,15,0.8,16,0.5,11
2015/1/17 0:53,0.7,15,0.7,16,0.1,11
2015/1/17 0:54,0.6,15,0.7,16,0.1,15
2015/1/17 0:55,0.5,14,0.6,16,0.1,14
2015/1/17 0:56,0.3,14,0.4,16,0,15
2015/1/17 0:57,0.2,15,0.3,16,0.1,4
2015/1/17 0:58,0.1,15,0.2,16,0.4,6
2015/1/17 0:59,0.1,14,0.1,16,0.6,6
2015/1/17 1:00,0,14,0.1,16,0,9
2015/1/17 1:01,0,9,0,15,0.1,9
2015/1/17 1:02,0.1,2,0.1,15,0.8,1
2015/1/17 1:03,0.1,2,0.1,15,1.1,16
2015/1/17 1:04,0.1,2,0.1,15,0.8,15
2015/1/17 1:05,0.2,3,0.2,14,1.4,15
2015/1/17 1:06,0.3,2,0.3,14,1.1,16
2015/1/17 1:07,0.3,2,0.3,2,0.6,6
2015/1/17 1:08,0.3,2,0.3,2,0.8,6
2015/1/17 1:09,0.3,3,0.3,2,0.1,7
2015/1/17 1:10,0.3,3,0.3,2,0,7
2015/1/17 1:11,0.3,3,0.3,2,0.1,7
2015/1/17 1:12,0.3,5,0.3,2,0.9,13
2015/1/17 1:13,0.3,6,0.3,2,1.6,14
2015/1/17 1:14,0.3,7,0.3,2,0.9,15
2015/1/17 1:15,0.2,8,0.3,2,0,11
2015/1/17 1:16,0.2,8,0.2,2,0.8,7
2015/1/17 1:17,0.3,9,0.3,2,0.9,11
2015/1/17 1:18,0.3,9,0.3,2,0.5,9
2015/1/17 1:19,0.3,9,0.3,3,1,8
2015/1/17 1:20,0.3,10,0.3,3,0.1,8
2015/1/17 1:21,0.3,11,0.3,4,0.8,13
2015/1/17 1:22,0.3,11,0.3,5,0.8,12
2015/1/17 1:23,0.3,11,0.3,6,0.6,13
2015/1/17 1:24,0.2,11,0.3,8,0.1,11
2015/1/17 1:25,0.2,11,0.2,8,0.1,11
2015/1/17 1:26,0.2,11,0.2,8,0.1,10
2015/1/17 1:27,0.2,10,0.2,9,1.5,8
2015/1/17 1:28,0.3,10,0.3,9,1.6,9
2015/1/17 1:29,0.3,11,0.3,9,0.8,9
2015/1/17 1:30,0.3,10,0.3,10,0.3,7
2015/1/17 1:31,0.3,10,0.3,11,0.9,7
2015/1/17 1:32,0.3,10,0.3,11,1.4,9
2015/1/17 1:33,0.4,9,0.4,9,1.5,9
2015/1/17 1:34,0.5,9,0.5,9,2.2,9
2015/1/17 1:35,0.6,9,0.6,9,2.2,10
2015/1/17 1:36,0.7,9,0.7,9,1.9,10
2015/1/17 1:37,0.9,9,0.9,9,2.4,9
2015/1/17 1:38,0.8,9,0.9,9,1.8,9
2015/1/17 1:39,0.9,9,0.9,9,1.5,9
2015/1/17 1:40,1,9,1,9,1.8,9
2015/1/17 1:41,1.1,9,1.1,9,1.9,8
2015/1/17 1:42,1.1,9,1.1,9,1.8,9
2015/1/17 1:43,1,9,1.1,9,1.4,11
2015/1/17 1:44,0.9,9,1,9,0.8,9
2015/1/17 1:45,0.8,9,0.9,9,0.9,7
2015/1/17 1:46,0.7,9,0.8,9,0.1,14
2015/1/17 1:47,0.5,10,0.7,9,0.1,12
2015/1/17 1:48,0.4,10,0.5,9,0.1,12
2015/1/17 1:49,0.4,10,0.4,9,0.4,8
2015/1/17 1:50,0.3,9,0.4,9,1.3,8
2015/1/17 1:51,0.3,10,0.3,9,0.8,9
2015/1/17 1:52,0.2,9,0.3,9,1.3,9
2015/1/17 1:53,0.2,9,0.2,9,0.5,9
2015/1/17 1:54,0.3,9,0.3,9,0.5,9
2015/1/17 1:55,0.3,9,0.3,9,0.5,10
2015/1/17 1:56,0.3,9,0.3,9,1,8
2015/1/17 1:57,0.3,9,0.3,10,0.8,5
2015/1/17 1:58,0.4,9,0.4,10,1.8,9
2015/1/17 1:59,0.5,9,0.5,9,1.9,9
2015/1/17 2:00,0.6,9,0.6,9,1.6,9
2015/1/17 2:01,0.6,9,0.6,9,1.3,10
2015/1/17 2:02,0.5,9,0.6,9,1,1
2015/1/17 2:03,0.5,10,0.5,9,0.6,15
2015/1/17 2:04,0.7,10,0.7,10,3.5,13
2015/1/17 2:05,0.8,10,0.8,10,3.2,12
2015/1/17 2:06,0.8,10,0.8,10,1.3,7
2015/1/17 2:07,0.9,10,0.9,10,1.3,8
2015/1/17 2:08,0.8,10,0.9,10,1.3,8
2015/1/17 2:09,0.7,10,0.8,10,0.4,10
2015/1/17 2:10,0.7,11,0.7,10,0.5,10
2015/1/17 2:11,0.6,10,0.6,10,0.5,10
2015/1/17 2:12,0.6,10,0.6,10,0.5,9
2015/1/17 2:13,0.7,10,0.7,10,1.4,10
2015/1/17 2:14,0.6,10,0.7,10,1.3,10
2015/1/17 2:15,0.5,10,0.6,10,1.3,10
2015/1/17 2:16,0.4,10,0.5,10,1.3,10
2015/1/17 2:17,0.5,10,0.5,10,1.8,9
2015/1/17 2:18,0.4,10,0.5,10,0.1,7
2015/1/17 2:19,0.5,10,0.5,10,1.3,12
2015/1/17 2:20,0.5,10,0.5,10,1.5,12
2015/1/17 2:21,0.6,10,0.6,10,1.6,15
2015/1/17 2:22,0.7,11,0.7,10,2.5,13
2015/1/17 2:23,0.8,11,0.8,11,2.5,13
2015/1/17 2:24,1,12,1,11,3.5,14
2015/1/17 2:25,1.3,12,1.3,12,4.4,8
2015/1/17 2:26,1.5,12,1.5,12,4.7,12
2015/1/17 2:27,1.6,12,1.6,12,3.5,8
2015/1/17 2:28,2,12,2,12,8.2,13
2015/1/17 2:29,2.2,12,2.2,12,8.4,14
2015/1/17 2:30,2.3,12,2.3,12,4.8,12
2015/1/17 2:31,2.5,12,2.5,12,6.8,13
2015/1/17 2:32,2.8,12,2.8,12,5.8,14
2015/1/17 2:33,2.9,12,2.9,12,5.8,13
2015/1/17 2:34,3.1,12,3.1,12,6.1,14
2015/1/17 2:35,3,12,3.1,12,4.4,14
2015/1/17 2:36,3.6,12,3.6,12,16.3,12
2015/1/17 2:37,4,13,4,13,16.5,12
2015/1/17 2:38,3.7,13,4,13,6.2,11
2015/1/17 2:39,4.1,13,4.1,13,11.5,12
2015/1/17 2:40,4.1,13,4.1,13,5.4,14
2015/1/17 2:41,4.2,13,4.3,13,8.2,12
2015/1/17 2:42,4.2,13,4.2,13,8.4,14
2015/1/17 2:43,4.2,13,4.2,13,6.4,13
2015/1/17 2:44,4.3,13,4.3,13,7.8,13
2015/1/17 2:45,4.4,13,4.4,13,9.7,12
2015/1/17 2:46,3.9,13,4.4,13,6.5,13
2015/1/17 2:47,3.9,13,4,13,12.6,11
2015/1/17 2:48,4.1,13,4.1,13,5.8,15
2015/1/17 2:49,3.8,13,4.1,13,5.7,14
2015/1/17 2:50,4.2,13,4.2,13,14.7,12
2015/1/17 2:51,4.4,13,4.4,13,13.2,12
2015/1/17 2:52,4.7,13,4.7,13,14,14
2015/1/17 2:53,4.8,13,4.8,13,7.8,8
2015/1/17 2:54,4.9,13,5,13,9,11
2015/1/17 2:55,5.2,13,5.2,13,13.8,12
2015/1/17 2:56,5.3,13,5.3,13,9.5,12
2015/1/17 2:57,5.2,13,5.3,13,11.5,13
2015/1/17 2:58,5.4,13,5.4,13,8.2,14
2015/1/17 2:59,5.6,13,5.6,13,9.4,13
2015/1/17 3:00,5.8,12,5.8,13,13.2,13
2015/1/17 3:01,5.6,12,5.8,13,12.7,11
2015/1/17 3:02,5.3,12,5.6,13,8.7,12
2015/1/17 3:03,5.7,12,5.7,13,19.3,12
2015/1/17 3:04,5.5,12,5.6,13,7.6,11
2015/1/17 3:05,5.1,12,5.5,13,5.6,12
2015/1/17 3:06,5.4,12,5.4,13,13.9,14
2015/1/17 3:07,5.3,12,5.3,13,7.2,11
2015/1/17 3:08,5,12,5.3,13,4.9,10
2015/1/17 3:09,4.9,12,5,13,7.9,13
2015/1/17 3:10,4.7,13,4.9,12,12.2,16
2015/1/17 3:11,4.6,13,4.7,12,7.8,14
2015/1/17 3:12,4.6,13,4.7,12,6.1,16
2015/1/17 3:13,4.2,13,4.5,12,7,13
2015/1/17 3:14,4.1,13,4.2,12,5.7,12
2015/1/17 3:15,4.2,13,4.2,12,6.1,13
2015/1/17 3:16,3.9,13,4.3,12,8.2,11
2015/1/17 3:17,3.8,13,3.9,12,6,13
2015/1/17 3:18,3.9,13,4,12,6.5,13
2015/1/17 3:19,4.1,13,4.1,12,10.7,13
2015/1/17 3:20,4.2,13,4.2,13,11,12
2015/1/17 3:21,4.1,13,4.2,13,9.8,9
2015/1/17 3:22,4.3,12,4.3,13,7.5,12
2015/1/17 3:23,4.4,13,4.4,12,9.4,14
2015/1/17 3:24,4.5,13,4.5,13,8.6,13
2015/1/17 3:25,4.7,13,4.7,12,8.6,13
2015/1/17 3:26,4.7,13,4.7,12,7,16
2015/1/17 3:27,4.6,13,4.7,12,5.6,12
2015/1/17 3:28,4.9,13,4.9,13,9.7,12
2015/1/17 3:29,4.8,13,5,13,8.4,15
2015/1/17 3:30,4.5,13,4.8,13,6.5,14
2015/1/17 3:31,4.1,14,4.4,13,3,15
2015/1/17 3:32,4,14,4.1,13,5.4,14
2015/1/17 3:33,3.7,14,3.9,13,5.6,12
2015/1/17 3:34,3.5,13,3.7,13,5.1,12
2015/1/17 3:35,3.4,13,3.6,13,10.2,12
2015/1/17 3:36,3.5,13,3.6,13,9.7,13
2015/1/17 3:37,3.7,13,3.7,13,10.9,9
2015/1/17 3:38,3.9,13,3.9,13,10.6,13
2015/1/17 3:39,4.1,12,4.1,13,11.3,11
2015/1/17 3:40,4.5,13,4.5,13,15.2,15
2015/1/17 3:41,4.9,13,4.9,13,8.4,14
2015/1/17 3:42,4.9,13,4.9,13,6.3,12
2015/1/17 3:43,5.1,12,5.1,12,7.1,14
2015/1/17 3:44,5.5,13,5.5,12,11.1,12
2015/1/17 3:45,5.5,13,5.5,12,8.7,13
2015/1/17 3:46,5.3,13,5.5,12,4.9,14
2015/1/17 3:47,5,13,5.2,12,5.6,14
2015/1/17 3:48,4.5,13,5,12,4.9,10
2015/1/17 3:49,4.2,13,4.5,12,5.5,12
2015/1/17 3:50,3.7,12,4.2,12,7.4,12
2015/1/17 3:51,3.9,12,3.9,12,9.7,13
2015/1/17 3:52,4,12,4,12,8.4,13
2015/1/17 3:53,4.1,12,4.1,12,9.8,14
2015/1/17 3:54,4,12,4.1,13,10,13
2015/1/17 3:55,3.9,12,4,13,7.8,10
2015/1/17 3:56,4.1,12,4.1,13,5.8,14
2015/1/17 3:57,4.5,12,4.5,13,10.3,12
2015/1/17 3:58,4.9,12,4.9,12,9.4,14
2015/1/17 3:59,4.8,13,4.9,12,5.1,15
2015/1/17 4:00,4.7,13,4.8,12,6.9,10
2015/1/17 4:01,4.7,13,4.7,12,7.9,13
2015/1/17 4:02,4.7,13,4.7,12,8.2,12
2015/1/17 4:03,4.6,13,4.7,12,7.2,13
2015/1/17 4:04,4.2,13,4.5,12,3.3,13
2015/1/17 4:05,4.5,13,4.5,12,11.6,15
2015/1/17 4:06,4.3,13,4.5,12,8.2,16
2015/1/17 4:07,4,13,4.2,12,6.3,10
2015/1/17 4:08,3.4,13,3.9,12,3.7,16
2015/1/17 4:09,3.4,13,3.5,13,6.3,12
2015/1/17 4:10,3.4,13,3.4,13,3.3,10
2015/1/17 4:11,3.2,13,3.4,13,5.5,11
2015/1/17 4:12,2.9,13,3.2,13,7.1,11
2015/1/17 4:13,2.7,13,2.9,13,6.8,12
2015/1/17 4:14,2.8,13,2.8,13,5.2,11
2015/1/17 4:15,2.5,12,2.8,13,6.5,12
2015/1/17 4:16,2.4,12,2.5,13,4.4,13
2015/1/17 4:17,2.4,12,2.4,13,3,14
2015/1/17 4:18,2.6,12,2.6,13,6.5,13
2015/1/17 4:19,2.7,12,2.7,13,5.2,14
2015/1/17 4:20,2.7,12,2.7,13,3.6,12
2015/1/17 4:21,2.9,12,2.9,13,8.3,13
2015/1/17 4:22,3,13,3,12,7,14
2015/1/17 4:23,3.1,12,3.1,12,7.9,11
2015/1/17 4:24,3.3,12,3.3,12,6.3,12
2015/1/17 4:25,3.5,12,3.5,12,9.2,13
2015/1/17 4:26,3.6,12,3.6,12,6.7,15
2015/1/17 4:27,4,12,4,12,12.6,10
2015/1/17 4:28,4.2,12,4.2,12,11,12
2015/1/17 4:29,4.5,12,4.5,12,9.8,12
2015/1/17 4:30,4.7,12,4.7,12,7.9,11
2015/1/17 4:31,4.7,12,4.7,12,7.5,11
2015/1/17 4:32,5,12,5,12,12.1,12
2015/1/17 4:33,5,12,5.1,12,9.4,13
2015/1/17 4:34,5,12,5,12,6.8,13
2015/1/17 4:35,4.8,12,5,12,6.7,11
2015/1/17 4:36,4.8,12,4.8,12,7.4,11
2015/1/17 4:37,4.6,12,4.8,12,8.6,12
2015/1/17 4:38,4.4,12,4.6,12,6.5,13
2015/1/17 4:39,4.2,12,4.3,12,9.9,12
2015/1/17 4:40,4.3,12,4.3,12,9.5,11
2015/1/17 4:41,4,12,4.3,12,4.2,13
2015/1/17 4:42,3.8,12,4,12,8.3,14
2015/1/17 4:43,3.8,12,3.9,12,6.5,12
2015/1/17 4:44,3.8,12,3.9,12,7.7,10
2015/1/17 4:45,3.9,12,4,12,9.8,10
2015/1/17 4:46,4.2,12,4.2,12,11.4,9
2015/1/17 4:47,4.2,12,4.2,12,9.3,10
2015/1/17 4:48,4.4,12,4.4,11,7.9,11
2015/1/17 4:49,4.3,12,4.4,11,5.4,11
2015/1/17 4:50,4,12,4.2,11,8.2,13
2015/1/17 4:51,4.1,12,4.1,11,6.4,14
2015/1/17 4:52,4.3,12,4.4,11,9,12
2015/1/17 4:53,4.4,12,4.4,11,9,13
2015/1/17 4:54,4.5,12,4.5,12,6.9,12
2015/1/17 4:55,4.4,12,4.5,12,8.2,13
2015/1/17 4:56,4.3,12,4.4,12,8.7,12
2015/1/17 4:57,4.4,12,4.5,12,9.1,16
2015/1/17 4:58,4.4,12,4.4,12,8.3,13
2015/1/17 4:59,4.7,12,4.7,12,8.4,12
2015/1/17 5:00,4.8,13,4.8,12,6.9,13
2015/1/17 5:01,5,13,5,13,9.8,12
2015/1/17 5:02,4.8,13,5.1,13,5.8,12
2015/1/17 5:03,4.5,12,4.8,13,4.9,12
2015/1/17 5:04,4.4,12,4.4,13,8.6,12
2015/1/17 5:05,4.5,12,4.5,13,8.5,10
2015/1/17 5:06,4.5,12,4.6,13,10.2,11
2015/1/17 5:07,4.3,12,4.5,13,6.7,11
2015/1/17 5:08,4.3,12,4.4,13,9.3,13
2015/1/17 5:09,4,12,4.3,13,5.7,13
2015/1/17 5:10,3.9,12,4,13,5.4,9
2015/1/17 5:11,3.5,12,3.8,13,5.6,15
2015/1/17 5:12,3.5,12,3.6,13,4.8,9
2015/1/17 5:13,3.5,12,3.5,12,3.2,9
2015/1/17 5:14,3.5,12,3.6,12,6.1,10
2015/1/17 5:15,3.4,12,3.5,12,7.5,8
2015/1/17 5:16,3.4,12,3.4,12,10.1,10
2015/1/17 5:17,3.5,12,3.5,12,9.5,8
2015/1/17 5:18,3.4,11,3.4,12,10.5,10
2015/1/17 5:19,3.8,11,3.8,12,10.3,10
2015/1/17 5:20,4,12,4,12,8.1,12
2015/1/17 5:21,4.1,11,4.1,12,6.9,12
2015/1/17 5:22,4,11,4.1,12,4.5,9
2015/1/17 5:23,4.3,11,4.3,11,9,11
2015/1/17 5:24,4.5,11,4.5,11,9.4,12
2015/1/17 5:25,4.6,12,4.6,12,7.8,10
2015/1/17 5:26,4.4,12,4.5,12,7.9,12
2015/1/17 5:27,4.5,11,4.5,12,6.8,10
2015/1/17 5:28,4.4,11,4.5,12,7.2,11
2015/1/17 5:29,4.1,12,4.4,12,7.1,12
2015/1/17 5:30,3.9,12,4.1,12,6.8,12
2015/1/17 5:31,4,12,4.1,12,10.5,11
2015/1/17 5:32,4,12,4,12,6.1,13
2015/1/17 5:33,3.9,12,4.1,12,6.4,12
2015/1/17 5:34,3.7,11,3.9,12,6.3,8
2015/1/17 5:35,3.4,11,3.7,12,4.1,11
2015/1/17 5:36,3.4,11,3.4,12,5,8
2015/1/17 5:37,3.4,11,3.4,11,10,13
2015/1/17 5:38,3.5,11,3.5,12,8.7,13
2015/1/17 5:39,3.6,11,3.6,12,7.6,11
2015/1/17 5:40,3.8,11,3.8,12,7.8,11
2015/1/17 5:41,3.6,11,3.8,12,7.4,9
2015/1/17 5:42,3.7,10,3.7,12,5.1,9
2015/1/17 5:43,3.7,10,3.7,12,8.3,10
2015/1/17 5:44,3.8,10,3.8,11,9.5,11
2015/1/17 5:45,4,11,4,11,8.9,11
2015/1/17 5:46,4,11,4,11,6.4,8
2015/1/17 5:47,4.1,11,4.1,11,10.7,12
2015/1/17 5:48,4,11,4.2,11,10.2,11
2015/1/17 5:49,3.7,11,4,11,3.5,11
2015/1/17 5:50,3.6,11,3.7,11,5.2,13
2015/1/17 5:51,3.7,11,3.7,11,8.2,12
2015/1/17 5:52,3.8,11,3.8,11,9.5,13
2015/1/17 5:53,3.9,11,4,11,9.2,12
2015/1/17 5:54,3.9,11,4,11,7,10
2015/1/17 5:55,3.8,11,3.8,11,7.6,11
2015/1/17 5:56,4,11,4,11,7.5,11
2015/1/17 5:57,4,11,4.1,11,6.8,10
2015/1/17 5:58,3.7,11,3.9,11,4.9,9
2015/1/17 5:59,3.8,10,3.8,11,4.3,9
2015/1/17 6:00,4,10,4,11,6.5,12
2015/1/17 6:01,3.9,10,4,11,6.2,12
2015/1/17 6:02,3.8,10,3.9,11,5.1,10
2015/1/17 6:03,3.7,10,3.7,11,6.8,11
2015/1/17 6:04,3.6,10,3.7,11,10,9
2015/1/17 6:05,3.7,10,3.7,11,7,10
2015/1/17 6:06,3.6,10,3.7,11,8.5,10
2015/1/17 6:07,3.4,10,3.6,10,4.8,13
2015/1/17 6:08,3.5,10,3.5,10,7.5,9
2015/1/17 6:09,3.6,10,3.6,10,7.1,8
2015/1/17 6:10,3.4,10,3.6,10,3.5,10
2015/1/17 6:11,3.2,10,3.4,10,4.5,10
2015/1/17 6:12,3.3,10,3.3,10,7.4,10
2015/1/17 6:13,3.1,10,3.3,10,4.7,10
2015/1/17 6:14,2.9,10,3,10,3.8,9
2015/1/17 6:15,2.7,10,2.8,10,5,9
2015/1/17 6:16,2.5,10,2.7,10,5.4,9
2015/1/17 6:17,2.5,10,2.5,10,5.5,8
2015/1/17 6:18,2.5,10,2.5,10,7.8,9
2015/1/17 6:19,2.5,10,2.5,10,6.8,9
2015/1/17 6:20,2.6,10,2.6,10,4.7,9
2015/1/17 6:21,2.8,10,2.8,10,6.7,10
2015/1/17 6:22,2.8,10,2.8,10,5.1,12
2015/1/17 6:23,2.8,10,2.8,10,3.8,8
2015/1/17 6:24,2.9,10,2.9,10,5.6,10
2015/1/17 6:25,2.9,10,3,10,5.5,10
2015/1/17 6:26,3,10,3,10,7.9,10
2015/1/17 6:27,3.2,10,3.2,10,7.9,10
2015/1/17 6:28,3.4,10,3.4,10,8.3,11
2015/1/17 6:29,3.5,10,3.5,10,7.5,10
2015/1/17 6:30,3.9,10,3.9,10,15.2,10
2015/1/17 6:31,3.8,10,3.9,10,6.7,11
2015/1/17 6:32,3.9,10,3.9,10,8.4,11
2015/1/17 6:33,4.2,10,4.2,10,7.9,11
2015/1/17 6:34,4.4,10,4.4,10,7,10
2015/1/17 6:35,4.4,11,4.4,10,5,12
2015/1/17 6:36,4.5,11,4.6,11,7.6,10
2015/1/17 6:37,4.4,11,4.5,11,5.8,10
2015/1/17 6:38,4.1,11,4.4,11,5.6,11
2015/1/17 6:39,4,11,4.1,11,4.4,11
2015/1/17 6:40,3.5,11,4,11,4.7,9
2015/1/17 6:41,3.3,11,3.4,11,3.7,12
2015/1/17 6:42,3.2,10,3.3,11,5.5,11
2015/1/17 6:43,3,11,3.2,11,4.9,11
2015/1/17 6:44,2.7,11,2.9,11,3.1,13
2015/1/17 6:45,2.8,11,2.8,11,7.5,12
2015/1/17 6:46,2.7,11,2.7,11,9.1,11
2015/1/17 6:47,2.9,11,2.9,11,8.7,8
2015/1/17 6:48,2.9,11,2.9,11,5.1,9
2015/1/17 6:49,2.9,11,2.9,11,7.4,9
2015/1/17 6:50,3.2,11,3.2,11,7.4,10
2015/1/17 6:51,3.1,11,3.2,10,5.7,9
2015/1/17 6:52,3.2,11,3.2,10,5.5,13
2015/1/17 6:53,3.1,11,3.2,11,3.6,14
2015/1/17 6:54,3.1,11,3.1,11,3.1,12
2015/1/17 6:55,2.9,11,3.1,11,4.2,12
2015/1/17 6:56,2.8,11,2.9,11,4.8,8
2015/1/17 6:57,2.6,11,2.8,11,5.4,8
2015/1/17 6:58,2.6,11,2.6,11,4.3,10
2015/1/17 6:59,2.7,11,2.7,11,7.4,10
2015/1/17 7:00,2.6,11,2.7,11,6.8,9
2015/1/17 7:01,2.7,11,2.7,11,5.2,9
2015/1/17 7:02,2.5,10,2.7,11,3.5,7
2015/1/17 7:03,2.8,10,2.8,11,9.7,9
2015/1/17 7:04,3,10,3,11,5.5,10
2015/1/17 7:05,3.1,10,3.1,10,6.5,9
2015/1/17 7:06,3.3,10,3.3,10,7.5,12
2015/1/17 7:07,3.3,10,3.3,10,5.4,9
2015/1/17 7:08,3.4,10,3.4,10,7.4,8
2015/1/17 7:09,3.4,10,3.5,10,7.4,11
2015/1/17 7:10,3.6,10,3.6,10,7.5,11
2015/1/17 7:11,3.7,10,3.7,10,8.1,9
2015/1/17 7:12,3.9,10,3.9,10,8.6,9
2015/1/17 7:13,3.6,10,3.8,10,4.4,8
2015/1/17 7:14,3.5,10,3.6,10,3.8,9
2015/1/17 7:15,3.5,10,3.5,10,6.2,11
2015/1/17 7:16,3.4,10,3.5,10,7.7,9
2015/1/17 7:17,3.3,10,3.4,10,5.2,9
2015/1/17 7:18,3.3,10,3.4,10,6.8,9
2015/1/17 7:19,3.2,10,3.3,10,6.5,8
2015/1/17 7:20,3.1,10,3.3,10,7,9
2015/1/17 7:21,3.1,10,3.2,10,6.8,9
2015/1/17 7:22,3.1,10,3.1,10,9.1,11
2015/1/17 7:23,3.4,10,3.4,10,9.1,10
2015/1/17 7:24,3.5,10,3.5,10,7.5,10
2015/1/17 7:25,3.4,10,3.5,10,4.7,10
2015/1/17 7:26,3.2,10,3.4,10,2,10
2015/1/17 7:27,3.1,10,3.1,10,3.9,10
2015/1/17 7:28,3,10,3.1,10,4.9,9
2015/1/17 7:29,2.9,10,2.9,10,7.2,9
2015/1/17 7:30,3,10,3,10,8.2,10
2015/1/17 7:31,3.1,10,3.1,10,8.2,10
2015/1/17 7:32,3.1,11,3.2,10,6.1,12
2015/1/17 7:33,2.9,11,3.1,10,4.2,11
2015/1/17 7:34,2.8,11,2.9,10,3.7,10
2015/1/17 7:35,2.8,11,2.8,10,5.1,10
2015/1/17 7:36,3.1,11,3.1,10,8.4,10
2015/1/17 7:37,3.1,11,3.2,10,4.3,12
2015/1/17 7:38,3.2,11,3.2,10,4.5,9
2015/1/17 7:39,3.1,10,3.2,10,4.8,10
2015/1/17 7:40,3,10,3.1,10,5.8,9
2015/1/17 7:41,2.8,10,2.9,10,4.9,9
2015/1/17 7:42,2.5,10,2.7,11,3.9,10
2015/1/17 7:43,2.4,10,2.5,11,5,10
2015/1/17 7:44,2.4,10,2.4,11,3,6
2015/1/17 7:45,2.4,10,2.5,11,7.2,10
2015/1/17 7:46,2.4,10,2.5,11,6.1,12
2015/1/17 7:47,2.4,10,2.4,11,5,9
2015/1/17 7:48,2.4,10,2.4,11,6,10
2015/1/17 7:49,2.6,10,2.6,10,7.4,9
2015/1/17 7:50,2.6,10,2.6,10,4.9,9
2015/1/17 7:51,2.7,10,2.7,10,5.7,10
2015/1/17 7:52,2.7,10,2.7,10,3.5,10
2015/1/17 7:53,2.8,10,2.8,10,5.7,10
2015/1/17 7:54,3,10,3,10,5.5,9
2015/1/17 7:55,3.2,10,3.2,10,8.9,10
2015/1/17 7:56,3.1,10,3.1,10,6.3,9
2015/1/17 7:57,3.4,10,3.4,10,6.8,11
2015/1/17 7:58,3.6,10,3.6,10,8.2,10
2015/1/17 7:59,3.7,10,3.7,10,7.8,10
2015/1/17 8:00,3.9,10,3.9,10,6.3,11
2015/1/17 8:01,3.9,10,3.9,10,4.5,9
2015/1/17 8:02,4,10,4,10,5.5,10
2015/1/17 8:03,4.1,10,4.1,10,6,11
2015/1/17 8:04,4.2,10,4.2,10,8.3,10
2015/1/17 8:05,4.2,10,4.2,10,8.3,10
2015/1/17 8:06,4.3,10,4.3,10,8.4,10
2015/1/17 8:07,4.2,10,4.3,10,6.8,10
2015/1/17 8:08,4,10,4.1,10,6.7,10
2015/1/17 8:09,3.9,10,4.1,10,7.2,10
2015/1/17 8:10,4,10,4,10,8.1,10
2015/1/17 8:11,4,10,4,10,6.4,11
2015/1/17 8:12,4.1,10,4.1,10,6.1,10
2015/1/17 8:13,4.1,10,4.2,10,7,9
2015/1/17 8:14,4.1,10,4.1,10,5.7,10
2015/1/17 8:15,3.9,10,4,10,5.7,9
2015/1/17 8:16,3.9,10,3.9,10,5.6,9
2015/1/17 8:17,3.8,10,3.9,10,4.8,6
2015/1/17 8:18,3.9,10,3.9,10,7.5,9
2015/1/17 8:19,3.9,10,3.9,10,6.7,9
2015/1/17 8:20,3.8,10,3.9,10,5.8,10
2015/1/17 8:21,3.8,10,3.8,10,7.6,12
2015/1/17 8:22,3.8,10,3.8,10,7,10
2015/1/17 8:23,3.8,10,3.8,10,8.2,10
2015/1/17 8:24,4,10,4,10,9,9
2015/1/17 8:25,4,10,4.1,10,6.7,11
2015/1/17 8:26,4.2,10,4.2,10,10.2,10
2015/1/17 8:27,4.4,10,4.4,10,8.3,9
2015/1/17 8:28,4.5,10,4.5,10,7.4,10
2015/1/17 8:29,4.4,10,4.5,10,7.2,9
2015/1/17 8:30,4.6,10,4.6,10,9.4,9
2015/1/17 8:31,4.8,10,4.8,10,10.7,10
2015/1/17 8:32,4.8,10,4.9,10,7.5,10
2015/1/17 8:33,4.8,10,4.9,10,9,9
2015/1/17 8:34,4.8,10,4.8,10,11.5,10
2015/1/17 8:35,5,10,5,10,11.8,9
2015/1/17 8:36,4.8,10,5,10,8.9,10
2015/1/17 8:37,4.9,10,4.9,10,11.1,10
2015/1/17 8:38,5,10,5,10,8.9,10
2015/1/17 8:39,5,10,5,10,6.4,8
2015/1/17 8:40,4.7,10,4.9,10,5.7,10
2015/1/17 8:41,4.4,10,4.6,10,5.6,11
2015/1/17 8:42,4.5,10,4.5,10,9.1,10
2015/1/17 8:43,4.4,10,4.5,10,7.5,9
2015/1/17 8:44,4.5,10,4.5,10,9.1,9
2015/1/17 8:45,4.4,10,4.4,10,8.7,10
2015/1/17 8:46,4.5,10,4.6,10,7.8,9
2015/1/17 8:47,4.4,10,4.6,10,7.9,11
2015/1/17 8:48,4.4,10,4.5,10,8.1,10
2015/1/17 8:49,4.4,10,4.4,10,7.1,9
2015/1/17 8:50,4.5,10,4.5,10,7.8,9
2015/1/17 8:51,4.7,10,4.7,10,9,10
2015/1/17 8:52,4.7,10,4.8,10,9.3,9
2015/1/17 8:53,4.9,10,4.9,10,10.5,11
2015/1/17 8:54,5,10,5,10,10.1,10
2015/1/17 8:55,5.2,10,5.2,10,9.1,9
2015/1/17 8:56,5.2,10,5.2,10,8.4,12
2015/1/17 8:57,5.2,10,5.2,10,8.5,12
2015/1/17 8:58,5.2,10,5.3,10,7.6,10
2015/1/17 8:59,5.3,10,5.3,10,8.5,9
2015/1/17 9:00,5.5,10,5.6,10,9.1,10
2015/1/17 9:01,5.6,10,5.6,10,10.9,9
2015/1/17 9:02,5.7,10,5.8,10,8.7,9
2015/1/17 9:03,5.6,10,5.7,10,9.8,9
2015/1/17 9:04,5.3,10,5.6,10,8.7,9
2015/1/17 9:05,5.2,10,5.3,10,9.5,10
2015/1/17 9:06,5.1,10,5.2,10,6.7,9
2015/1/17 9:07,5.1,10,5.1,10,14,9
2015/1/17 9:08,5.3,10,5.3,10,11.1,9
2015/1/17 9:09,5.3,10,5.4,10,9.2,11
2015/1/17 9:10,5.2,10,5.3,10,8.7,10
2015/1/17 9:11,5,10,5.3,10,12.4,9
2015/1/17 9:12,5,10,5.1,10,8.9,12
2015/1/17 9:13,4.8,10,5,10,6.4,12
2015/1/17 9:14,4.8,10,4.9,10,6.9,10
2015/1/17 9:15,4.8,10,4.8,10,8.9,10
2015/1/17 9:16,4.9,10,5,10,10,10
2015/1/17 9:17,5,10,5,10,11.8,8
2015/1/17 9:18,4.9,11,5,10,8.5,12
2015/1/17 9:19,4.7,10,4.9,10,9.1,8
2015/1/17 9:20,4.8,10,4.8,10,10.2,10
2015/1/17 9:21,5.1,10,5.1,10,12.2,11
2015/1/17 9:22,5.2,10,5.2,10,10,13
2015/1/17 9:23,5.1,11,5.2,10,8.4,12
2015/1/17 9:24,5.2,11,5.2,10,8.5,11
2015/1/17 9:25,5.6,11,5.6,11,14.2,10
2015/1/17 9:26,5.7,11,5.7,11,12.1,12
2015/1/17 9:27,5.7,11,5.8,11,10.6,14
2015/1/17 9:28,5.8,11,5.9,11,11.1,13
2015/1/17 9:29,5.8,11,5.9,11,9.4,9
2015/1/17 9:30,5.7,12,5.8,11,8.9,12
2015/1/17 9:31,5.7,12,5.7,11,11.1,13
2015/1/17 9:32,5.7,12,5.8,11,10.3,10
2015/1/17 9:33,5.7,11,5.7,11,7.6,12
2015/1/17 9:34,5.8,12,5.9,11,9.8,13
2015/1/17 9:35,5.3,12,5.7,11,7.7,11
2015/1/17 9:36,5.2,12,5.3,11,9.8,9
2015/1/17 9:37,5.1,11,5.2,11,8.4,11
2015/1/17 9:38,4.8,11,5,11,8.1,10
2015/1/17 9:39,4.8,11,4.9,12,6,12
2015/1/17 9:40,4.9,11,5,12,9.3,9
2015/1/17 9:41,4.6,10,4.9,12,6.7,11
2015/1/17 9:42,4.2,10,4.5,12,5.6,11
2015/1/17 9:43,4.2,10,4.2,12,6.3,10
2015/1/17 9:44,4,10,4.2,12,7.9,10
2015/1/17 9:45,4,10,4,12,7.8,10
2015/1/17 9:46,3.8,10,4,12,7.7,9
2015/1/17 9:47,3.7,10,3.8,11,9,9
2015/1/17 9:48,3.7,10,3.7,11,9.4,11
2015/1/17 9:49,4,10,4,11,9.1,10
2015/1/17 9:50,3.9,10,4,11,6.2,8
2015/1/17 9:51,3.9,10,3.9,10,7.1,10
2015/1/17 9:52,4,10,4,10,9.4,10
2015/1/17 9:53,4.3,10,4.3,10,12.2,11
2015/1/17 9:54,4.5,10,4.6,10,10.6,13
2015/1/17 9:55,4.7,11,4.7,10,9.8,13
2015/1/17 9:56,4.5,11,4.7,10,4.4,12
2015/1/17 9:57,4.5,11,4.5,10,8.3,9
2015/1/17 9:58,4.5,11,4.5,10,6.5,12
2015/1/17 9:59,4.2,11,4.5,10,8.3,10
2015/1/17 10:00,4.2,12,4.3,10,6.5,10
2015/1/17 10:01,4.4,12,4.4,10,7.4,11
2015/1/17 10:02,4.5,11,4.6,10,7.2,10
2015/1/17 10:03,4.1,11,4.4,10,7.6,10
2015/1/17 10:04,3.9,11,4.1,10,8.7,11
2015/1/17 10:05,3.8,11,3.9,11,8.4,12
2015/1/17 10:06,4,11,4,11,7,13
2015/1/17 10:07,4,11,4.1,11,7.1,12
2015/1/17 10:08,3.8,11,4,11,9,10
2015/1/17 10:09,3.5,11,3.7,11,3.1,9
2015/1/17 10:10,3.6,11,3.6,11,8.3,10
2015/1/17 10:11,3.6,11,3.7,11,9.5,11
2015/1/17 10:12,3.7,11,3.7,11,8.3,9
2015/1/17 10:13,3.8,11,3.8,12,8.6,12
2015/1/17 10:14,3.8,11,3.9,11,6.5,11
2015/1/17 10:15,3.8,11,3.8,11,5.8,10
2015/1/17 10:16,3.8,11,3.8,11,8.3,10
2015/1/17 10:17,4.1,11,4.1,11,12.1,10
2015/1/17 10:18,4.4,11,4.4,11,13.1,10
2015/1/17 10:19,4.7,10,4.7,10,6.5,10
2015/1/17 10:20,4.8,10,4.8,10,8.2,8
2015/1/17 10:21,4.5,10,4.7,10,4.3,11
2015/1/17 10:22,4.5,10,4.5,10,6.8,11
2015/1/17 10:23,4.3,10,4.5,10,5.8,12
2015/1/17 10:24,4.1,10,4.2,10,3.5,11
2015/1/17 10:25,4.1,10,4.1,10,5.5,11
2015/1/17 10:26,4,10,4.1,10,6.1,9
2015/1/17 10:27,3.9,10,4,10,7.8,10
2015/1/17 10:28,3.7,10,3.9,10,6.2,10
2015/1/17 10:29,3.6,10,3.7,10,4.5,13
2015/1/17 10:30,3.3,11,3.5,10,5.8,12
2015/1/17 10:31,3.5,10,3.5,10,6.8,10
2015/1/17 10:32,3.2,10,3.5,10,4.4,14
2015/1/17 10:33,3.3,10,3.3,10,10.7,10
2015/1/17 10:34,3.7,10,3.7,10,9,10
2015/1/17 10:35,3.6,10,3.7,10,5.8,9
2015/1/17 10:36,3.7,11,3.7,10,8.2,10
2015/1/17 10:37,3.7,11,3.8,10,7.8,11
2015/1/17 10:38,3.7,11,3.7,11,7.2,9
2015/1/17 10:39,3.8,11,3.8,11,8.5,12
2015/1/17 10:40,3.7,11,3.8,11,4.7,12
2015/1/17 10:41,3.8,11,3.8,11,9.3,11
2015/1/17 10:42,4,11,4,11,7.8,12
2015/1/17 10:43,3.8,11,4.1,11,5,10
2015/1/17 10:44,3.6,11,3.8,11,5,9
2015/1/17 10:45,3.5,11,3.6,11,3.5,9
2015/1/17 10:46,3.2,11,3.5,11,3.8,12
2015/1/17 10:47,2.8,11,3.2,11,3.3,10
2015/1/17 10:48,2.8,12,2.9,11,6.8,12
2015/1/17 10:49,2.9,12,2.9,11,8.2,13
2015/1/17 10:50,2.9,12,2.9,11,5.5,12
2015/1/17 10:51,2.9,12,2.9,11,7.5,11
2015/1/17 10:52,2.8,12,2.9,11,4.9,12
2015/1/17 10:53,2.6,12,2.8,11,2.7,13
2015/1/17 10:54,2.7,12,2.7,11,5.8,13
2015/1/17 10:55,2.7,12,2.7,11,5.2,13
2015/1/17 10:56,2.8,12,2.8,11,5.2,9
2015/1/17 10:57,2.9,12,2.9,11,5.2,9
2015/1/17 10:58,2.7,12,2.9,12,4.1,9
2015/1/17 10:59,2.4,12,2.7,12,2.9,14